This is the latest recevied weather packets stored in our database for station/object KF7SOJ. If no packets are shown the sender has not sent any weather packets the latest 10 day(s).
| Time | Temp. | Humidity | Pressure | Rain* | Wind** | Luminosity | Snow |
|---|---|---|---|---|---|---|---|
| 1777671638 | 22.78° C | 19% | 933.6 hPa | 0 mm | - | 770 W/m² | - |
| 1777671336 | 23.33° C | 16% | 933.5 hPa | 0 mm | - | 783 W/m² | - |
| 1777671032 | 22.22° C | 22% | 933.6 hPa | 0 mm | - | 795 W/m² | - |
| 1777670728 | 22.78° C | 18% | 933.7 hPa | 0 mm | - | 807 W/m² | - |
| 1777670426 | 22.22° C | 19% | 933.6 hPa | 0 mm | - | 818 W/m² | - |
| 1777670122 | 21.67° C | 18% | 933.7 hPa | 0 mm | - | 829 W/m² | - |
| 1777669821 | 22.22° C | 18% | 933.7 hPa | 0 mm | - | 841 W/m² | - |
| 1777669516 | 22.22° C | 17% | 934 hPa | 0 mm | - | 846 W/m² | - |
| 1777669213 | 22.78° C | 17% | 933.8 hPa | 0 mm | - | 861 W/m² | - |
| 1777668909 | 22.22° C | 19% | 933.9 hPa | 0 mm | - | 870 W/m² | - |
| 1777668608 | 21.67° C | 19% | 934 hPa | 0 mm | - | 876 W/m² | - |
| 1777668303 | 22.22° C | 20% | 934 hPa | 0 mm | - | 882 W/m² | - |
| 1777667999 | 21.67° C | 19% | 933.8 hPa | 0 mm | - | 893 W/m² | - |
| 1777667696 | 21.67° C | 20% | 933.9 hPa | 0 mm | - | 899 W/m² | - |
| 1777667394 | 21.67° C | 18% | 933.9 hPa | 0 mm | - | 906 W/m² | - |
| 1777667090 | 22.22° C | 18% | 934 hPa | 0 mm | - | 910 W/m² | - |
| 1777666787 | 22.22° C | 17% | 934 hPa | 0 mm | - | 919 W/m² | - |
| 1777666484 | 22.22° C | 22% | 933.9 hPa | 0 mm | - | 923 W/m² | - |
| 1777666181 | 22.22° C | 20% | 934 hPa | 0 mm | - | 930 W/m² | - |
| 1777665878 | 21.67° C | 18% | 934.3 hPa | 0 mm | - | 932 W/m² | - |
| 1777665575 | 21.11° C | 22% | 934.2 hPa | 0 mm | - | 937 W/m² | - |
| 1777665272 | 21.11° C | 18% | 934.1 hPa | 0 mm | - | 941 W/m² | - |
| 1777664967 | 21.11° C | 19% | 934.1 hPa | 0 mm | - | 942 W/m² | - |
| 1777664663 | 21.67° C | 18% | 934.2 hPa | 0 mm | - | 948 W/m² | - |
| 1777664360 | 21.67° C | 22% | 934.3 hPa | 0 mm | - | 955 W/m² | - |
* Rain latest hour (hover to see other rain measurements)
** Current wind speed in m/s (hover to see current wind gust speed)